Current Conditions
Mostly Cloudy
Conditions



Pressure
30.08 (inHG) - 1018.62 (mb)
Visibility

9.9 (miles) - 16.0 (km)
Temperature
48  °F
Temperature
43  °F
Dewpoint
82  %
 Humidity
Wind Speed
0  mph
0  kts
0  km/h
0  m/s
Wind Direction
N
45°
E
90°
135°
S
180°
225°
W
270°
315°
Calm

Due North
Airport Data
KNUQ
Moffett Federal Airfield
Metar :KNUQ 011210Z AUTO 00000KT 10SM BKN047 09/06 A3008 RMK AO2
Wed 1st December 05:10 am
Raw Metar Info
Raw METAR is the most common format in the world for the transmission of observational weather data. It is highly standardized through the International Civil Aviation Organization (ICAO), which allows it to be understood throughout most of the world.
API Info
Data Provided by
https://www.checkwx.com/weather/KNUQ

Aviation Weather providing METAR, TAF, AIRMET, SIGMET and OUTLOOK Weather Reports
© Info
CSS/SVG/PHP scripts were developed by weather34.com for use in the weather34 template © 2015-2021

Guide Info provided by Metar-Wikipedia